sat.trackr.live / text

‹ back to catalog

VINDLER 2.3

NORAD 68486 · 2026-067BY

PAYLOAD ACTIVE UNKNOWN

§ Identity

Operator
Country
US
Launch date
2026-03-30
Launch site
AFWTR
Launch vehicle
Mass (kg)
RCS (m²)

External: N2YO · Heavens-Above · Gunter

§ Orbital elements

Epoch: 2026-09-20T03:13:44.090976Z

Period
96.50 min
Inclination
97.7678°
Eccentricity
0.0002352
Mean motion
14.92241189 rev/d
Perigee alt
589.3 km
Apogee alt
592.6 km
Semi-major
6,969.1 km
B*
1.0051e-4
RAAN
219.9860°
Arg perigee
60.3548°
Mean anomaly
299.7905°
Rev number
2,588

§ Raw data

VINDLER 2.31 68486U 26067BY  26263.13453809  .00000969  00000+0  10051-3 0  99982 68486  97.7678 219.9860 0002352  60.3548 299.7905 14.92241189 25886

JSON: /api/v1/satellites/68486 · /tle

For live sub-satellite position, see the globe view (requires WebGL).

§ Visibility from observer

Set your observer location to see the next 7 days of passes ≥ 10°. The values pass through the URL so the page stays shareable.

No JS? Fill the form by hand. The geolocation button needs JavaScript.